Regional Weather Roundup
Issued by NWS

Home | Current Version | Previous Version | Graphics & Text | Print | Product List | Glossary On
Versions: 1 2 3 4 5 6 7 8 9 10 11 12 13 14 15 16 17 18 19 20 21 22 23 24 25 26 27 28 29 30 31 32 33 34 35 36 37 38 39 40 41 42 43 44 45 46 47 48 49 50
000
ASUS43 KBIS 240231
RWRND
NORTH DAKOTA REGIONAL WEATHER ROUNDUP
NATIONAL WEATHER SERVICE EASTERN NORTH DAKOTA/GRAND FORKS ND
900 PM CDT MON APR 23 2018

  NOTE: "FAIR" INDICATES FEW OR NO CLOUDS BELOW 12,000 FEET WITH NO
  SIGNIFICANT WEATHER AND/OR OBSTRUCTIONS TO VISIBILITY.

NDZ001>003-009>011-017-240300-
...NORTHWEST NORTH DAKOTA...

CITY           SKY/WX    TMP DP  RH WIND       PRES   REMARKS
WILLISTON      FAIR      48  22  35 N9        30.33R
MINOT          CLOUDY    50  31  48 NW12      30.27R
MINOT AFB      FAIR      50  26  39 N9        30.27
$$

NDZ018>021-031>035-040>046-240300-
...SOUTHWEST NORTH DAKOTA...

CITY           SKY/WX    TMP DP  RH WIND       PRES   REMARKS
BISMARCK       CLOUDY    53  36  52 N20G29    30.21R
DICKINSON      RAIN      39  36  89 N20G35    30.26R WCI  29
GARRISON         N/A     43  41  93 N12       30.28R
HETTINGER      CLOUDY    44  33  65 N30G43    30.16R
$$

NDZ004>008-012>016-024-026-027-054-240300-
...NORTHEAST NORTH DAKOTA...

CITY           SKY/WX    TMP DP  RH WIND       PRES   REMARKS
GRAND FORKS    MOCLDY    53  42  66 CALM      30.18R
GRAND FORKS AF CLOUDY    50  36  60 NW3       30.19
DEVILS LAKE    FAIR      49  37  63 N12       30.23R
$$

NDZ022-023-025-028>030-036>039-047>053-240300-
...SOUTHEAST NORTH DAKOTA...

CITY           SKY/WX    TMP DP  RH WIND       PRES   REMARKS
JAMESTOWN      CLOUDY    53  40  61 N9        30.17R
FARGO          FAIR      56  40  55 N8        30.16R
WAHPETON       FAIR      55  41  58 N14       30.15R
$$



USA.gov is the U.S. government's official web portal to all federal, state and local government web resources and services.